This demonstration page uses our WeatherBlox Daily Observations layout. Learn more.

Left ArrowRight Arrow

44.8408, -93.29828

Hourly Observations for September 5, 2018

Temp ( °F °C ) Dew Point ( °F °C ) Humidity (%) Winds ( mph kmh ) Pressure ( in mb ) Visibility ( mi km ) Precip ( " mm )
12:08 am 00:08 Cloudy 67 19.4 66 18.9 97 97 NNW 3 6 29.97 1015 10 16 0.00 0.00
12:41 am 00:41 Cloudy 67 19.4 66 18.9 97 97 N 5 7 29.97 1015 10 16 0.00 0.00
12:48 am 00:48 Cloudy with Light Rain 66 19 66 19 100 100 N 5 7 29.97 1015 10 16 0.00 0.03
12:53 am 00:53 Cloudy with Light Rain 67 19.4 66 18.9 97 97 NNW 6 9 29.98 1015 10 16 0.00 0.03
1:53 am 01:53 Cloudy with Light Rain 67 19.4 67 19.4 100 100 N 6 9 29.97 1015 10 16 0.00 0.03
2:21 am 02:21 Mostly Cloudy with Light Rain 67 19.4 67 19.4 100 100 NNW 6 9 29.94 1014 10 16 0.01 0.25
2:53 am 02:53 Cloudy 67 19.4 67 19.4 100 100 NNW 7 11 29.98 1015 10 16 0.01 0.25
3:53 am 03:53 Cloudy with Light Rain 67 19.4 67 19.4 100 100 NNW 5 7 30.00 1016 10 16 0.01 0.25
4:53 am 04:53 Mostly Cloudy 66 18.9 66 18.9 100 100 NW 5 7 30.02 1017 10 16 0.00 0.03
5:53 am 05:53 Cloudy 67 19.4 66 18.9 97 97 VRB 6 9 30.04 1017 10 16 0.00 0.03
6:53 am 06:53 Cloudy 67 19.4 66 18.9 97 97 NNW 9 15 30.06 1018 10 16 0.00 0.00
7:07 am 07:07 Cloudy 67 19.4 66 18.9 97 97 NNW 13 20 30.06 1018 10 16 0.00 0.00
7:53 am 07:53 Cloudy 65 18.3 61 16.1 87 87 N 14 22 30.09 1019 10 16 0.00 0.00
8:19 am 08:19 Cloudy 65 18.3 62 16.7 90 90 N 12 19 30.09 1019 10 16 0.00 0.00
8:30 am 08:30 Cloudy 65 18.3 62 16.7 90 90 NNW 15 24 30.09 1019 10 16 0.00 0.00
8:53 am 08:53 Cloudy 64 17.8 59 15 84 84 N 16 26 30.13 1020 10 16 0.00 0.00
9:53 am 09:53 Cloudy 63 17.2 54 12.2 73 73 N 16 26 30.17 1022 10 16 0.00 0.00
10:53 am 10:53 Mostly Cloudy 64 17.8 54 12.2 70 70 N 13 20 30.20 1023 10 16 0.00 0.00
11:53 am 11:53 Mostly Cloudy 67 19.4 54 12.2 63 63 N 14 22 30.21 1023 10 16 0.00 0.00
12:53 pm 12:53 Mostly Cloudy 68 20 53 11.7 59 59 N 12 19 30.22 1023 10 16 0.00 0.00
1:53 pm 13:53 Mostly Cloudy 70 21.1 53 11.7 55 55 NNE 13 20 30.22 1023 10 16 0.00 0.00
2:53 pm 14:53 Mostly Cloudy 71 21.7 52 11.1 51 51 NNE 13 20 30.22 1023 10 16 0.00 0.00
3:53 pm 15:53 Mostly Cloudy 72 22.2 50 10 46 46 NNE 15 24 30.23 1024 10 16 0.00 0.00
4:53 pm 16:53 Mostly Cloudy 72 22.2 48 8.9 43 43 NNE 13 20 30.24 1024 10 16 0.00 0.00
5:53 pm 17:53 Mostly Cloudy 71 21.7 50 10 47 47 NNE 12 19 30.26 1025 10 16 0.00 0.00
6:53 pm 18:53 Mostly Cloudy 70 21.1 49 9.4 47 47 NNE 10 17 30.26 1025 10 16 0.00 0.00
7:53 pm 19:53 Partly Cloudy 67 19.4 47 8.3 49 49 NNE 7 11 30.28 1026 10 16 0.00 0.00
8:53 pm 20:53 Mostly Clear 64 17.8 47 8.3 54 54 N 6 9 30.31 1026 10 16 0.00 0.00
9:53 pm 21:53 Clear 63 17.2 49 9.4 60 60 N 3 6 30.33 1027 10 16 0.00 0.00
10:53 pm 22:53 Clear 61 16.1 49 9.4 65 65 N 5 7 30.35 1028 10 16 0.00 0.00
11:53 pm 23:53 Clear 58 14.4 50 10 75 75 N 6 9 30.35 1028 10 16 0.00 0.00

Powered by AerisWeather